STARLINK-5425, 54791

Orbit data source: Space-Track

STARLINK-5425, 54791 is a payload satellite owned by SpaceX/Seattle (US) in LEO that was launched on Sat, 17 Dec 2022 UTC via an FALCON 9 launch vehicle from the Air Force Eastern Test Range (AFETR). Payload-class satellites include a variety of spacecraft equipped with specific instruments for various scientific and technological missions. These include communications satellites like Starlink; space stations such as the ISS; scientific satellites like the Hubble; Earth observation satellites from companies like Planet Labs, Umbra, and HawkEye 360; GPS; miniature CubeSats for education and research; and military/defense satellites.

Loading next visibility...
Identifier
54791, 2022-175AK
Orbit
LEO
Last TLE update
13 hours ago
Origin
Manufacturer
SpaceX/Seattle
Mission
Operational Commercial Communications
Bus & Motor
STARLINK, Unknown motor
Mass
305 kg wet, ~290 kg dry
Launch date (UTC)
2022-12-17 (2 years ago)
Launch vehicle
FALCON 9
Launch site
Air Force Eastern Test Range (AFETR)
Object type
Payload
Rocket body
Debris
Shape & HBR
Box + 1 Pan, 8.86 m
Radar Cross Section
13.562 m², Large (>1 m²)

Expand to show TLE details & history

TLE from 13 hours ago
0 STARLINK-5425
1 54791U 22175AK  25130.72983740 -.00000371  00000-0 -52506-5 0  9990
2 54791  53.2187 309.1032 0001333  91.2848 268.8297 15.08833682134390
Epoch: 2025-05-10T17:30Z
Definitive object data (Epoch: 2025-05-10T17:30:57.951Z)
Latitude
-0.00001°
Longitude
177.59429°
Altitude
540.679 km
Speed
7.593 km/s
True Right ascension
20h 36m 24s
True Declination
0° 00' 00"
Sunlit
Object was in daylight at TLE epoch
Visualization TLE readout
Latitude
29.73786°
Longitude
-30.03567°
Altitude
540.818 km
Speed
7.596 km/s
Apparent Right ascension
05h 09m 08s
Apparent Declination
-3° 52' 11"
Sunlit
Object is in daylight
Visualization observer readout
Local Sidereal Time
15:08:23
Azimuth
314.995° NW
Elevation
-44.81°
Doppler factor
1
Orbital elements
Apogee altitude
540.93 km
Perigee altitude
539.085 km
Semi-major axis
6,918.144 km
Eccentricity
0.0001333
Inclination
53.2187°
RAAN
309.1032°
Arg. of periapsis
91.2848°
True anomaly
268.81443°
Mean anomaly
268.8297°
Eccentric anomaly
268.82206°
Mean motion
3.77189 °/min
BSTAR
-0.0000052506
Orbital period
95.44 mins
Loading maneuver chart data...
Loading SW <> Apogee altitude chart data...
Loading historical data...
Loading historical data...
Loading historical data...
Loading historical data...
Loading historical data...
Loading historical data...
Loading historical data...

STARLINK-5425 Visibility forecast

Observer location: undefined°, undefined°

Span
Click to sort rows by Start time (UTC) header in descending order
Start Az.
Max El. time (UTC)
Max El. Az.
Max El.
End time (UTC)
End Az.
7 mins2025-05-11 14:20:36.401Z220.67° SW2025-05-11 14:24:36.401Z131.881° SE43.347°2025-05-11 14:27:36.401Z55.647° ENE
4 mins2025-05-11 16:02:36.401Z301.282° NW2025-05-11 16:04:36.401Z344.247° N21.402°2025-05-11 16:06:36.401Z20.402° NNE
6 mins2025-05-11 21:02:36.401Z318.017° NNW2025-05-11 21:05:36.401Z55.403° ENE42.209°2025-05-11 21:08:36.401Z118.783° SE
|